[[{"header":{"parameterUnit":"m.s-1","parameterCategory":1,"la1":30.2991,"la2":30.254,"lo1":-89.0895,"lo2":-89.0444,"dy":0.0017,"dx":0.0017,"nx":28,"ny":28,"refTime":"2025-06-06T09:00:00:Z","depth":0,"parameterNumber":2,"parameterNumberName":"U-component_of_WINDS"},"data":[0,0,0,0,0,0,0,0,0,0,0,0,0,0,0,0,0,0,0,0,0,0,0,0,0,0,0,0,0,0,0,0,0,0,0,0,0,0,0,0,0,0,0,0,0,0,0,0,0,0,0,0,0,0,0,0,0,0,3.038,3.0381,0,3.0461,3.0462,3.0463,3.0428,3.0426,3.0424,3.0422,3.0504,3.0508,3.0512,0,0,0,0,0,0,0,0,0,0,0,0,0,3.0191,3.0195,3.038,3.0381,3.0382,3.0461,3.0462,3.0463,3.0428,3.0426,3.0423,3.0421,3.0503,3.0508,3.0513,0,0,0,0,0,0,0,0,0,0,0,0,0,3.0273,3.0196,3.0379,3.0374,3.0374,3.0461,3.0462,3.0463,3.0429,3.0426,3.0423,3.042,3.0501,3.0507,3.0513,3.061,0,0,3.0532,3.0534,0,0,0,0,0,0,0,0,3.0268,3.028,3.0374,3.0374,3.0375,3.0431,3.0426,3.0513,3.0429,3.0408,3.0422,3.0418,3.0482,3.049,3.0512,3.0614,3.0617,3.0532,3.0536,3.0539,3.054,0,0,0,0,0,0,0,3.0263,3.0276,3.0412,3.0375,3.0376,3.0366,3.0375,3.0442,3.0461,3.041,3.0407,3.0417,3.0482,3.0506,3.0513,3.0619,3.0532,3.0538,3.0541,3.0544,3.0801,3.0804,0,0,0,0,0,0,3.0257,3.0272,3.0409,3.0414,3.0313,3.0372,3.0381,3.0416,3.046,3.0464,3.042,3.0415,3.0497,3.0506,3.0516,3.0629,3.0539,3.0544,3.0548,3.0797,3.0801,3.0805,0,0,0,0,0,0,3.0253,3.027,3.0406,3.0342,3.0359,3.0378,3.0418,3.0419,3.0443,3.0468,3.0471,3.0441,3.0495,3.0507,3.0586,3.0632,3.0547,3.0552,3.0794,3.0799,3.0803,3.0858,0,0,0,0,0,0,3.0248,3.0269,3.0306,3.0343,3.0362,3.0476,3.0421,3.0423,3.0454,3.0449,3.0488,3.0492,3.0494,3.0577,3.0592,3.0638,3.0557,3.079,3.0796,3.0801,3.0852,3.0864,3.0875,0,0,0,0,0,3.0242,3.0319,3.0309,3.0325,3.041,3.0478,3.0489,3.049,3.0457,3.0495,3.051,3.049,3.0625,3.0586,3.0602,3.0651,3.0787,3.0794,3.0801,3.0847,3.0862,3.0874,0,0,0,0,0,0,3.0287,3.0324,3.0313,3.0405,3.0439,3.0472,3.0519,3.0506,3.055,3.0543,3.0542,3.0551,3.0632,3.065,3.0605,3.0745,3.0701,3.0711,3.073,3.0744,3.0755,3.0748,3.0562,0,0,0,0,0,3.0308,3.0361,3.039,3.0469,3.0486,3.05,3.053,3.0528,3.0562,3.0577,3.0598,3.0632,3.0681,3.0714,3.0762,3.0855,3.0862,3.0897,3.0908,3.0917,3.0926,3.0973,3.0988,3.0828,3.0828,3.0828,0,0,3.0352,3.0378,3.0412,3.0479,3.0505,3.0558,3.0512,3.0572,3.0611,3.0586,3.066,3.0677,3.0715,3.0801,3.084,3.0818,3.0971,3.0926,3.0933,3.0937,3.0982,3.0997,3.1011,3.0833,3.0832,3.0831,0,0,3.0458,3.0485,3.0551,3.0578,3.0618,3.0626,3.0642,3.0678,3.0687,3.0763,3.0744,3.079,3.0876,3.0903,3.0928,3.1042,3.1024,3.1058,3.1115,3.1161,3.1174,3.1185,3.1223,3.1237,3.1067,3.1067,3.1067,0,3.0507,3.0587,3.0587,3.0647,3.0676,3.0655,3.0722,3.0748,3.0801,3.082,3.0796,3.0901,3.0926,3.1016,3.1043,3.1065,3.1082,3.1052,3.1172,3.1183,3.1193,3.1229,3.1244,3.107,3.107,3.107,3.1069,0,3.0644,3.07,3.0749,3.08,3.0834,3.0898,3.0906,3.094,3.0935,3.0945,3.102,3.1049,3.11,3.1121,3.1117,3.121,3.1195,3.1172,3.1126,3.1212,3.1246,3.126,3.1075,3.1074,3.1073,3.1072,0,0,3.0781,3.083,3.0848,3.0869,3.0911,3.0953,3.1015,3.1064,3.1093,3.113,3.118,3.1252,3.1229,3.1258,3.1256,3.1297,3.1382,3.1268,3.1269,3.1286,3.1483,3.1499,3.1515,3.1371,3.1374,3.1376,3.1479,0,3.0888,3.0995,3.0996,3.1094,3.1144,3.1125,3.1177,3.1208,3.1219,3.1262,3.1275,3.1325,3.1293,3.1309,3.1349,3.1363,3.1421,3.1356,3.1415,3.1417,3.1404,3.1533,3.155,3.1646,3.1492,3.1495,3.1496,0,3.1027,3.1067,3.117,3.1202,3.1223,3.1271,3.1315,3.1357,3.139,3.1395,3.1426,3.1417,3.1478,3.1432,3.1514,3.147,3.1494,3.1505,3.1508,3.1512,3.146,3.1537,3.1676,3.169,3.1517,3.1516,3.1514,0,3.1113,3.1193,3.1264,3.1284,3.1323,3.1357,3.1375,3.1405,3.1434,3.1473,3.1491,3.1536,3.1561,3.1595,3.1598,3.1566,3.168,3.1636,3.1684,3.1684,3.1707,3.1705,3.1849,3.1728,3.1727,3.1727,3.1727,0,3.1231,3.1294,3.1303,3.1347,3.1416,3.1416,3.1484,3.1499,3.1526,3.1571,3.1557,3.1599,3.1602,3.1645,3.1648,3.1714,3.1726,3.173,3.1729,3.173,3.1729,3.1744,3.1736,3.1731,3.173,3.1729,3.1729,0,3.1337,3.1347,3.1422,3.1453,3.1462,3.1511,3.1537,3.1578,3.1587,3.1644,3.1657,3.1672,3.1722,3.1728,3.1787,3.1789,3.1867,3.1861,3.1855,3.1853,3.19,3.1895,3.2057,3.2077,3.1945,3.1946,3.1947,0,3.1411,3.1459,3.1494,3.1523,3.1542,3.159,3.1618,3.162,3.1651,3.1691,3.1726,3.1774,3.1813,3.1893,3.1908,3.1952,3.1945,3.1999,3.1951,3.1949,3.1942,3.1938,3.1941,3.2007,3.2009,3.201,3.2011,0,3.1539,3.154,3.1583,3.1627,3.1662,3.1696,3.1729,3.1753,3.1758,3.1793,3.1843,3.1873,3.1932,3.1979,3.2022,3.2039,3.2025,3.2026,3.2039,3.2038,3.2032,3.2033,3.1877,3.2022,3.2021,3.202,3.2019,3.2019,3.1629,3.1669,3.17,3.1747,3.1771,3.1801,3.184,3.1854,3.1896,3.1944,3.1942,3.1997,3.2026,3.2082,3.2103,3.2144,3.2127,3.2146,3.2151,3.2155,3.2158,3.2027,3.2153,3.2152,3.2152,3.2152,3.2152,0,3.1754,3.1772,3.1815,3.186,3.1897,3.1881,3.1916,3.1947,3.1995,3.2024,3.2062,3.2118,3.2163,3.2182,3.2225,3.2255,3.2249,3.2266,3.2263,3.2266,3.2173,3.2156,3.227,3.227,3.227,3.227,3.227,3.227,3.1823,3.1889,3.1894,3.1971,3.1989,3.2042,3.2063,3.209,3.2112,3.2176,3.2213,3.2225,3.2249,3.2294,3.2334,3.2338,3.2353,3.2372,3.2373,3.2285,3.2273,3.2262,3.2246,3.2376,3.2377,3.2463,3.2464,3.2464]},{"header":{"parameterUnit":"m.s-1","parameterCategory":1,"la1":30.2991,"la2":30.254,"lo1":-89.0895,"lo2":-89.0444,"dy":0.0017,"dx":0.0017,"nx":28,"ny":28,"refTime":"2025-06-06T09:00:00:Z","depth":0,"parameterNumber":3,"parameterNumberName":"V-component_of_WINDS"},"data":[0,0,0,0,0,0,0,0,0,0,0,0,0,0,0,0,0,0,0,0,0,0,0,0,0,0,0,0,0,0,0,0,0,0,0,0,0,0,0,0,0,0,0,0,0,0,0,0,0,0,0,0,0,0,0,0,0,0,1.6427,1.6427,0,1.6424,1.6423,1.6423,1.639,1.639,1.6389,1.6388,1.6384,1.6385,1.6385,0,0,0,0,0,0,0,0,0,0,0,0,0,1.6405,1.6405,1.6427,1.6427,1.6427,1.6424,1.6423,1.6423,1.6391,1.639,1.6389,1.6388,1.6384,1.6384,1.6385,0,0,0,0,0,0,0,0,0,0,0,0,0,1.6409,1.6405,1.6427,1.641,1.6409,1.6424,1.6423,1.6423,1.6391,1.6389,1.6388,1.6387,1.6383,1.6384,1.6385,1.6416,0,0,1.6388,1.6389,0,0,0,0,0,0,0,0,1.6409,1.641,1.6413,1.6412,1.641,1.6406,1.6414,1.6421,1.6391,1.6398,1.6388,1.6386,1.6392,1.6392,1.6394,1.6416,1.6416,1.6388,1.6389,1.6389,1.639,0,0,0,0,0,0,0,1.6409,1.641,1.6426,1.6413,1.6411,1.6402,1.6402,1.6415,1.6402,1.6397,1.6394,1.6395,1.6391,1.6394,1.6394,1.6416,1.6388,1.6389,1.639,1.639,1.646,1.6461,0,0,0,0,0,0,1.6411,1.641,1.6426,1.6426,1.6406,1.6404,1.6403,1.6409,1.6402,1.6399,1.6396,1.6393,1.6393,1.6393,1.6394,1.6428,1.6389,1.639,1.6391,1.6459,1.6461,1.6462,0,0,0,0,0,0,1.641,1.6413,1.6426,1.6417,1.6418,1.6406,1.6412,1.6409,1.6411,1.6401,1.6398,1.6401,1.6392,1.6392,1.641,1.6428,1.6391,1.6392,1.6457,1.6459,1.6461,1.6498,0,0,0,0,0,0,1.641,1.6413,1.6425,1.6418,1.6419,1.6443,1.6413,1.641,1.6413,1.641,1.6405,1.6403,1.6391,1.6409,1.6411,1.6428,1.6393,1.6456,1.6458,1.6461,1.6495,1.6501,1.6506,0,0,0,0,0,1.6409,1.6435,1.6425,1.6427,1.6434,1.6444,1.6445,1.6431,1.6415,1.6426,1.6419,1.6403,1.6425,1.6411,1.6414,1.6431,1.6455,1.6458,1.646,1.6493,1.65,1.6505,0,0,0,0,0,0,1.6445,1.6434,1.6423,1.6448,1.6447,1.6439,1.6453,1.6439,1.6443,1.6439,1.6422,1.6421,1.6441,1.6438,1.6422,1.6459,1.6437,1.6441,1.6461,1.6467,1.6472,1.6473,1.6393,0,0,0,0,0,1.6456,1.6466,1.6456,1.6478,1.6479,1.6466,1.647,1.6459,1.6458,1.6457,1.6451,1.6451,1.6457,1.6462,1.6468,1.6494,1.6492,1.6507,1.6513,1.6517,1.652,1.6532,1.6538,1.6471,1.6471,1.6471,0,0,1.6478,1.6473,1.6481,1.6485,1.6484,1.6493,1.6466,1.6478,1.6485,1.6459,1.6475,1.6471,1.6469,1.6491,1.65,1.6489,1.6538,1.6521,1.6524,1.6525,1.6536,1.6542,1.6548,1.6473,1.6473,1.6473,0,0,1.6524,1.6522,1.6539,1.6538,1.6536,1.6527,1.6531,1.6524,1.652,1.6536,1.6517,1.6525,1.6537,1.6536,1.6537,1.658,1.6565,1.6583,1.661,1.6622,1.6628,1.6632,1.6647,1.6652,1.6586,1.6586,1.6586,0,1.6552,1.6566,1.6551,1.6564,1.6565,1.6542,1.656,1.6559,1.6559,1.656,1.6548,1.6561,1.6559,1.6579,1.659,1.6592,1.6595,1.6583,1.6628,1.6633,1.6637,1.665,1.6656,1.6588,1.6588,1.6588,1.6587,0,1.66,1.661,1.6625,1.6625,1.6628,1.6644,1.663,1.6635,1.6624,1.6616,1.6632,1.6627,1.6631,1.6635,1.6624,1.6654,1.6647,1.6631,1.6608,1.6645,1.6658,1.6663,1.6591,1.659,1.659,1.6589,0,0,1.6669,1.6658,1.6664,1.6663,1.6658,1.6665,1.6679,1.6682,1.6687,1.6687,1.6697,1.6708,1.6693,1.6694,1.6683,1.6694,1.6727,1.6677,1.6676,1.6685,1.6757,1.6768,1.6774,1.6717,1.6718,1.6718,1.6757,0,1.6711,1.6734,1.672,1.6745,1.6753,1.673,1.6742,1.674,1.6733,1.6739,1.6731,1.6738,1.6719,1.6719,1.6729,1.6721,1.6741,1.6718,1.6725,1.6726,1.6726,1.6781,1.6793,1.6829,1.6762,1.6763,1.6763,0,1.6765,1.6766,1.6792,1.6783,1.6786,1.6797,1.6798,1.6805,1.6801,1.6795,1.6796,1.6781,1.6793,1.6771,1.6787,1.6772,1.6774,1.677,1.6771,1.6771,1.6746,1.6781,1.6841,1.6846,1.6771,1.677,1.677,0,1.681,1.6819,1.6835,1.6835,1.6826,1.6834,1.6831,1.6826,1.6828,1.6829,1.683,1.6833,1.6834,1.6836,1.6822,1.6808,1.6839,1.6817,1.6834,1.6834,1.6841,1.6841,1.6901,1.6844,1.6844,1.6844,1.6844,0,1.6859,1.6875,1.6855,1.6865,1.6882,1.6865,1.6882,1.6877,1.6872,1.688,1.6861,1.6869,1.685,1.6856,1.6845,1.6859,1.686,1.6855,1.6852,1.6856,1.6856,1.6857,1.6853,1.6846,1.6845,1.6845,1.6845,0,1.6913,1.69,1.6916,1.6906,1.6904,1.6917,1.6908,1.6916,1.6907,1.6917,1.6918,1.6905,1.691,1.6897,1.69,1.6893,1.6912,1.6906,1.6913,1.6911,1.6929,1.6927,1.6991,1.6998,1.6937,1.6938,1.6938,0,1.6944,1.6956,1.6947,1.6951,1.6948,1.6954,1.6956,1.694,1.6943,1.6939,1.6948,1.6951,1.6953,1.6963,1.6953,1.6955,1.6947,1.697,1.6948,1.6951,1.6946,1.6945,1.6946,1.6974,1.6975,1.6975,1.6976,0,1.7001,1.6994,1.6998,1.6999,1.7002,1.7002,1.7001,1.7005,1.6987,1.6991,1.6996,1.6998,1.7001,1.7004,1.7004,1.7,1.6985,1.6983,1.6987,1.6991,1.6994,1.6991,1.6925,1.6981,1.6981,1.698,1.698,1.698,1.7044,1.7053,1.7047,1.7051,1.7049,1.7048,1.7054,1.7046,1.705,1.7051,1.7041,1.7048,1.7043,1.7041,1.7038,1.7043,1.7033,1.7039,1.704,1.7042,1.7044,1.6994,1.7043,1.7043,1.7043,1.7043,1.7042,0,1.7098,1.7094,1.7098,1.7096,1.7099,1.7085,1.7082,1.7086,1.7092,1.7089,1.7091,1.7096,1.7099,1.7089,1.709,1.7095,1.7088,1.7096,1.7095,1.7094,1.7054,1.705,1.7102,1.7102,1.7102,1.7102,1.7102,1.7102,1.7127,1.7141,1.7133,1.7144,1.7139,1.7145,1.7145,1.7144,1.7141,1.7147,1.7149,1.7143,1.7136,1.7137,1.7138,1.7135,1.7136,1.7146,1.7141,1.7103,1.7097,1.7092,1.7088,1.7147,1.7147,1.7181,1.7181,1.7181]}]]